When you browse on this site, cookies collect data to enhance your experience and personalize the content and advertising you see.
Visit our Privacy Policy to learn more. By continuing to use the site, you agree to this use of cookies and data.
  • En España
  • Lista de países
  • Para 7 días
  • Temperatura del agua
  • El tiempo en el mapa
  • Informadores
  • user-avatar
    Iniciar sesión

    Tiempo cada hora Lota

    Hoy, 22 Enero, Miércoles

    Tiempo Temperatura Precipitaciones Viento Presión Humedad
    00:00 +20°C° 0 mm 2 mps 756 mmHg 57%
    01:00 +20°C° 0 mm 2 mps 755 mmHg 57%
    02:00 +19°C° 0 mm 2 mps 755 mmHg 59%
    03:00 +18°C° 0 mm 1 mps 755 mmHg 61%
    04:00 +16°C° 0 mm 1 mps 755 mmHg 63%
    05:00 +20°C° 0 mm 1 mps 755 mmHg 57%
    06:00 +22°C° 0 mm 1 mps 756 mmHg 51%
    07:00 +24°C° 0 mm 1 mps 756 mmHg 44%
    08:00 +27°C° 0 mm 1 mps 756 mmHg 39%
    09:00 +30°C° 0 mm 2 mps 756 mmHg 34%
    10:00 +33°C° 0 mm 3 mps 756 mmHg 29%
    11:00 +33°C° 0 mm 3 mps 756 mmHg 32%
    12:00 +31°C° 0 mm 3 mps 756 mmHg 34%
    13:00 +30°C° 0 mm 3 mps 756 mmHg 37%
    14:00 +30°C° 0 mm 3 mps 755 mmHg 39%
    15:00 +29°C° 0 mm 3 mps 755 mmHg 40%
    16:00 +28°C° 0 mm 2 mps 755 mmHg 42%
    17:00 +26°C° 0 mm 2 mps 755 mmHg 52%
    18:00 +23°C° 0 mm 2 mps 755 mmHg 61%
    19:00 +20°C° 0 mm 2 mps 756 mmHg 71%
    20:00 +18°C° 0 mm 2 mps 756 mmHg 78%
    21:00 +17°C° 0 mm 2 mps 756 mmHg 84%
    22:00 +15°C° 0 mm 1 mps 757 mmHg 90%
    23:00 +15°C° 0 mm 1 mps 757 mmHg 91%

    Mañana, 23 Enero, Jueves

    Tiempo Temperatura Precipitaciones Viento Presión Humedad
    00:00 +15°C° 0 mm 1 mps 757 mmHg 92%
    01:00 +15°C° 0 mm 1 mps 757 mmHg 93%
    02:00 +15°C° 0 mm 1 mps 757 mmHg 93%
    03:00 +14°C° 0 mm 0 mps 758 mmHg 92%
    04:00 +13°C° 0 mm 0 mps 758 mmHg 92%
    05:00 +15°C° 0 mm 0 mps 758 mmHg 84%
    06:00 +19°C° 0 mm 1 mps 759 mmHg 75%
    07:00 +21°C° 0 mm 1 mps 759 mmHg 66%
    08:00 +24°C° 0 mm 1 mps 760 mmHg 57%
    09:00 +26°C° 0 mm 2 mps 760 mmHg 48%
    10:00 +29°C° 0 mm 2 mps 760 mmHg 38%
    11:00 +30°C° 0 mm 2 mps 760 mmHg 38%
    12:00 +30°C° 0 mm 3 mps 760 mmHg 37%
    13:00 +30°C° 0 mm 3 mps 760 mmHg 37%
    14:00 +30°C° 0 mm 3 mps 760 mmHg 36%
    15:00 +30°C° 0 mm 3 mps 760 mmHg 36%
    16:00 +30°C° 0 mm 3 mps 760 mmHg 35%
    17:00 +27°C° 0 mm 3 mps 760 mmHg 40%
    18:00 +25°C° 0 mm 3 mps 760 mmHg 45%
    19:00 +22°C° 0 mm 3 mps 760 mmHg 50%
    20:00 +21°C° 0 mm 3 mps 760 mmHg 51%
    21:00 +20°C° 0 mm 3 mps 760 mmHg 52%
    22:00 +19°C° 0 mm 3 mps 760 mmHg 53%
    23:00 +18°C° 0 mm 3 mps 760 mmHg 58%

    Pasado mañana, 24 Enero, Viernes

    Tiempo Temperatura Precipitaciones Viento Presión Humedad
    00:00 +17°C° 0 mm 2 mps 760 mmHg 63%
    01:00 +15°C° 0 mm 2 mps 759 mmHg 68%
    02:00 +15°C° 0 mm 2 mps 760 mmHg 66%
    03:00 +15°C° 0 mm 2 mps 760 mmHg 63%
    04:00 +15°C° 0 mm 2 mps 760 mmHg 60%
    05:00 +17°C° 0 mm 2 mps 760 mmHg 51%
    06:00 +20°C° 0 mm 2 mps 760 mmHg 41%
    07:00 +24°C° 0 mm 2 mps 761 mmHg 31%
    08:00 +27°C° 0 mm 3 mps 761 mmHg 24%
    09:00 +30°C° 0 mm 3 mps 761 mmHg 18%
    10:00 +35°C° 0 mm 4 mps 761 mmHg 11%
    11:00 +35°C° 0 mm 5 mps 761 mmHg 12%
    12:00 +35°C° 0 mm 5 mps 761 mmHg 12%
    13:00 +36°C° 0 mm 6 mps 760 mmHg 13%
    14:00 +35°C° 0 mm 6 mps 760 mmHg 14%
    15:00 +35°C° 0 mm 6 mps 760 mmHg 15%
    16:00 +34°C° 0 mm 6 mps 760 mmHg 16%
    17:00 +30°C° 0 mm 6 mps 760 mmHg 21%
    18:00 +26°C° 0 mm 6 mps 761 mmHg 25%
    19:00 +22°C° 0 mm 5 mps 761 mmHg 30%
    20:00 +20°C° 0 mm 5 mps 761 mmHg 34%
    21:00 +18°C° 0 mm 4 mps 761 mmHg 38%
    22:00 +15°C° 0 mm 4 mps 761 mmHg 42%
    23:00 +14°C° 0 mm 3 mps 761 mmHg 44%

    25 Enero, Sábado

    Tiempo Temperatura Precipitaciones Viento Presión Humedad
    00:00 +14°C° 0 mm 3 mps 760 mmHg 46%
    01:00 +13°C° 0 mm 3 mps 760 mmHg 48%
    02:00 +13°C° 0 mm 3 mps 760 mmHg 48%
    03:00 +13°C° 0 mm 2 mps 760 mmHg 48%
    04:00 +13°C° 0 mm 2 mps 760 mmHg 49%
    05:00 +16°C° 0 mm 2 mps 760 mmHg 44%
    06:00 +18°C° 0 mm 2 mps 760 mmHg 39%
    07:00 +20°C° 0 mm 2 mps 760 mmHg 34%
    08:00 +25°C° 0 mm 2 mps 760 mmHg 29%
    09:00 +29°C° 0 mm 2 mps 760 mmHg 24%
    10:00 +34°C° 0 mm 2 mps 760 mmHg 19%
    11:00 +34°C° 0 mm 3 mps 760 mmHg 20%
    12:00 +34°C° 0 mm 4 mps 760 mmHg 21%
    13:00 +35°C° 0 mm 5 mps 760 mmHg 23%
    14:00 +34°C° 0 mm 5 mps 759 mmHg 24%
    15:00 +34°C° 0 mm 5 mps 759 mmHg 26%
    16:00 +33°C° 0 mm 5 mps 759 mmHg 28%
    17:00 +30°C° 0 mm 5 mps 759 mmHg 36%
    18:00 +27°C° 0 mm 5 mps 760 mmHg 43%
    19:00 +25°C° 0 mm 5 mps 760 mmHg 51%
    20:00 +22°C° 0 mm 5 mps 760 mmHg 56%
    21:00 +21°C° 0 mm 4 mps 760 mmHg 61%
    22:00 +20°C° 0 mm 4 mps 760 mmHg 66%
    23:00 +19°C° 0 mm 4 mps 760 mmHg 70%

    26 Enero, Domingo

    Tiempo Temperatura Precipitaciones Viento Presión Humedad
    00:00 +18°C° 0 mm 3 mps 760 mmHg 74%
    01:00 +18°C° 0 mm 3 mps 760 mmHg 77%
    02:00 +17°C° 0 mm 3 mps 760 mmHg 80%
    03:00 +17°C° 0 mm 3 mps 760 mmHg 83%
    04:00 +17°C° 0 mm 3 mps 760 mmHg 85%
    05:00 +19°C° 0 mm 3 mps 760 mmHg 77%
    06:00 +21°C° 0 mm 3 mps 760 mmHg 69%
    07:00 +24°C° 0 mm 3 mps 760 mmHg 61%
    08:00 +27°C° 0 mm 3 mps 760 mmHg 52%
    09:00 +30°C° 0 mm 3 mps 760 mmHg 44%
    10:00 +34°C° 0 mm 4 mps 760 mmHg 35%
    11:00 +35°C° 0 mm 4 mps 760 mmHg 32%
    12:00 +36°C° 0 mm 5 mps 760 mmHg 30%
    13:00 +38°C° 0 mm 6 mps 760 mmHg 27%
    14:00 +36°C° 0 mm 6 mps 760 mmHg 28%
    15:00 +35°C° 0 mm 6 mps 760 mmHg 29%
    16:00 +34°C° 0 mm 6 mps 759 mmHg 30%
    17:00 +32°C° 0 mm 6 mps 760 mmHg 35%
    18:00 +29°C° 0 mm 6 mps 760 mmHg 41%
    19:00 +27°C° 0 mm 5 mps 760 mmHg 46%
    20:00 +25°C° 0 mm 5 mps 760 mmHg 51%
    21:00 +22°C° 0 mm 4 mps 760 mmHg 56%
    22:00 +20°C° 0 mm 4 mps 761 mmHg 61%
    23:00 +19°C° 0 mm 4 mps 760 mmHg 65%

    27 Enero, Lunes

    Tiempo Temperatura Precipitaciones Viento Presión Humedad
    00:00 +18°C° 0 mm 3 mps 760 mmHg 68%
    01:00 +17°C° 0 mm 3 mps 760 mmHg 71%
    02:00 +17°C° 0 mm 3 mps 760 mmHg 73%
    03:00 +16°C° 0 mm 3 mps 759 mmHg 75%
    04:00 +15°C° 0 mm 2 mps 759 mmHg 77%
    05:00 +18°C° 0 mm 2 mps 759 mmHg 68%
    06:00 +20°C° 0 mm 2 mps 759 mmHg 58%
    07:00 +23°C° 0 mm 2 mps 759 mmHg 49%
    08:00 +26°C° 0 mm 3 mps 759 mmHg 38%
    09:00 +30°C° 0 mm 3 mps 759 mmHg 27%
    10:00 +35°C° 0 mm 4 mps 759 mmHg 16%
    11:00 +35°C° 0 mm 5 mps 759 mmHg 16%
    12:00 +35°C° 0 mm 6 mps 758 mmHg 15%
    13:00 +35°C° 0 mm 7 mps 758 mmHg 15%
    14:00 +34°C° 0 mm 7 mps 758 mmHg 16%
    15:00 +33°C° 0 mm 7 mps 758 mmHg 18%
    16:00 +32°C° 0 mm 7 mps 758 mmHg 19%
    17:00 +28°C° 0 mm 6 mps 758 mmHg 24%
    18:00 +24°C° 0 mm 6 mps 758 mmHg 29%
    19:00 +21°C° 0 mm 5 mps 759 mmHg 34%
    20:00 +19°C° 0 mm 5 mps 759 mmHg 37%
    21:00 +16°C° 0 mm 5 mps 759 mmHg 39%
    22:00 +15°C° 0 mm 4 mps 759 mmHg 42%
    23:00 +14°C° 0 mm 4 mps 759 mmHg 43%
    Mostrar más